Time,TemperatureF,DewpointF,PressureIn,WindDirection,WindDirectionDegrees,WindSpeedMPH,WindSpeedGustMPH,Humidity,HourlyPrecipIn,Conditions,Clouds,dailyrainin,SoftwareType,DateUTC
2013-01-11 00:10:00,66.9,65.0,30.27,SSE,154,2.0,4.0,92,0.00,,,0.00,weatherlink.com 1.10,2013-01-11 05:10:00,
2013-01-11 00:26:00,66.5,65.0,30.27,SSE,155,1.0,4.0,93,0.00,,,0.00,weatherlink.com 1.10,2013-01-11 05:26:00,
2013-01-11 00:41:00,66.5,65.0,30.26,SSE,153,2.0,3.0,94,0.00,,,0.00,weatherlink.com 1.10,2013-01-11 05:41:00,
2013-01-11 00:56:00,66.4,65.0,30.26,SSE,159,3.0,4.0,94,0.00,,,0.00,weatherlink.com 1.10,2013-01-11 05:56:00,
2013-01-11 01:11:00,66.1,65.0,30.26,SSE,149,2.0,4.0,95,0.00,,,0.00,weatherlink.com 1.10,2013-01-11 06:11:00,
2013-01-11 01:26:00,65.9,65.0,30.25,SSE,151,4.0,4.0,95,0.00,,,0.00,weatherlink.com 1.10,2013-01-11 06:26:00,
2013-01-11 01:41:00,65.7,65.0,30.25,SE,138,4.0,6.0,96,0.00,,,0.00,weatherlink.com 1.10,2013-01-11 06:41:00,
2013-01-11 01:56:00,65.8,65.0,30.24,South,179,6.0,8.0,96,0.00,,,0.00,weatherlink.com 1.10,2013-01-11 06:56:00,
2013-01-11 02:11:00,65.7,65.0,30.24,South,170,2.0,8.0,97,0.00,,,0.00,weatherlink.com 1.10,2013-01-11 07:11:00,
2013-01-11 02:26:00,65.5,65.0,30.24,SSE,165,2.0,6.0,97,0.00,,,0.00,weatherlink.com 1.10,2013-01-11 07:26:00,
2013-01-11 02:41:00,65.8,65.0,30.24,South,175,6.0,7.0,97,0.00,,,0.00,weatherlink.com 1.10,2013-01-11 07:41:00,
2013-01-11 02:56:00,65.9,65.0,30.24,South,176,2.0,7.0,98,0.00,,,0.00,weatherlink.com 1.10,2013-01-11 07:56:00,
2013-01-11 03:11:00,65.9,65.0,30.24,South,173,2.0,5.0,98,0.00,,,0.00,weatherlink.com 1.10,2013-01-11 08:11:00,
2013-01-11 03:27:00,65.8,65.0,30.24,SSE,153,3.0,5.0,98,0.00,,,0.00,weatherlink.com 1.10,2013-01-11 08:27:00,
2013-01-11 03:41:00,65.2,64.0,30.24,SSE,157,0.0,2.0,97,0.00,,,0.00,weatherlink.com 1.10,2013-01-11 08:41:00,
2013-01-11 03:56:00,65.1,65.0,30.23,SSE,157,0.0,1.0,98,0.00,,,0.00,weatherlink.com 1.10,2013-01-11 08:56:00,
2013-01-11 04:11:00,65.2,65.0,30.23,SSE,157,0.0,1.0,98,0.00,,,0.00,weatherlink.com 1.10,2013-01-11 09:11:00,
2013-01-11 04:26:00,65.5,65.0,30.22,SSE,157,0.0,3.0,98,0.00,,,0.00,weatherlink.com 1.10,2013-01-11 09:26:00,
2013-01-11 04:41:00,66.5,66.0,30.21,South,172,3.0,6.0,99,0.00,,,0.00,weatherlink.com 1.10,2013-01-11 09:41:00,
2013-01-11 04:56:00,66.5,66.0,30.21,SSE,165,2.0,7.0,98,0.00,,,0.00,weatherlink.com 1.10,2013-01-11 09:56:00,
2013-01-11 05:11:00,66.6,66.0,30.21,SSE,161,0.0,3.0,98,0.00,,,0.00,weatherlink.com 1.10,2013-01-11 10:11:00,
2013-01-11 05:26:00,66.3,66.0,30.21,SSE,161,0.0,1.0,98,0.00,,,0.00,weatherlink.com 1.10,2013-01-11 10:26:00,
2013-01-11 05:41:00,66.4,66.0,30.21,SSE,161,0.0,2.0,98,0.00,,,0.00,weatherlink.com 1.10,2013-01-11 10:41:00,
2013-01-11 05:56:00,66.7,66.0,30.21,SSE,161,0.0,1.0,98,0.00,,,0.00,weatherlink.com 1.10,2013-01-11 10:56:00,
2013-01-11 06:11:00,66.6,66.0,30.21,SSE,161,0.0,1.0,98,0.00,,,0.00,weatherlink.com 1.10,2013-01-11 11:11:00,
2013-01-11 06:26:00,66.4,66.0,30.22,SSE,161,0.0,0.0,97,0.00,,,0.00,weatherlink.com 1.10,2013-01-11 11:26:00,
2013-01-11 06:41:00,66.5,66.0,30.23,SSE,161,0.0,1.0,98,0.00,,,0.00,weatherlink.com 1.10,2013-01-11 11:41:00,
2013-01-11 06:56:00,66.7,66.0,30.23,SSE,161,1.0,2.0,98,0.00,,,0.00,weatherlink.com 1.10,2013-01-11 11:56:00,
2013-01-11 07:11:00,66.8,66.0,30.23,North,5,2.0,4.0,98,0.00,,,0.00,weatherlink.com 1.10,2013-01-11 12:11:00,
2013-01-11 07:26:00,66.6,66.0,30.23,East,81,1.0,2.0,98,0.00,,,0.00,weatherlink.com 1.10,2013-01-11 12:26:00,
2013-01-11 07:41:00,66.2,65.0,30.24,East,81,0.0,1.0,97,0.00,,,0.00,weatherlink.com 1.10,2013-01-11 12:41:00,
2013-01-11 07:56:00,66.2,66.0,30.23,East,89,0.0,2.0,98,0.00,,,0.00,weatherlink.com 1.10,2013-01-11 12:56:00,
2013-01-11 08:11:00,66.7,66.0,30.24,East,89,0.0,0.0,98,0.00,,,0.00,weatherlink.com 1.10,2013-01-11 13:11:00,
2013-01-11 08:26:00,67.9,67.0,30.25,East,89,0.0,2.0,98,0.00,,,0.00,weatherlink.com 1.10,2013-01-11 13:26:00,
2013-01-11 08:41:00,69.5,68.0,30.25,ENE,71,2.0,4.0,96,0.00,,,0.00,weatherlink.com 1.10,2013-01-11 13:41:00,
2013-01-11 08:56:00,70.3,69.0,30.25,East,84,1.0,3.0,94,0.00,,,0.00,weatherlink.com 1.10,2013-01-11 13:56:00,
2013-01-11 09:11:00,70.6,69.0,30.25,East,98,2.0,5.0,94,0.00,,,0.00,weatherlink.com 1.10,2013-01-11 14:11:00,
2013-01-11 09:26:00,71.5,70.0,30.26,East,98,2.0,3.0,94,0.00,,,0.00,weatherlink.com 1.10,2013-01-11 14:26:00,
2013-01-11 09:41:00,72.7,70.0,30.26,East,91,1.0,5.0,91,0.00,,,0.00,weatherlink.com 1.10,2013-01-11 14:41:00,
2013-01-11 09:56:00,73.8,70.0,30.27,SE,146,4.0,6.0,89,0.00,,,0.00,weatherlink.com 1.10,2013-01-11 14:56:00,
2013-01-11 10:11:00,73.6,71.0,30.27,SE,132,5.0,6.0,90,0.00,,,0.00,weatherlink.com 1.10,2013-01-11 15:11:00,
2013-01-11 10:27:00,74.7,71.0,30.27,SE,138,5.0,6.0,87,0.00,,,0.00,weatherlink.com 1.10,2013-01-11 15:27:00,
2013-01-11 10:42:00,75.3,70.0,30.26,South,180,4.0,7.0,82,0.00,,,0.00,weatherlink.com 1.10,2013-01-11 15:42:00,
2013-01-11 10:57:00,75.8,69.0,30.26,SSE,163,3.0,5.0,78,0.00,,,0.00,weatherlink.com 1.10,2013-01-11 15:57:00,
2013-01-11 11:12:00,76.0,68.0,30.25,South,171,5.0,10.0,76,0.00,,,0.00,weatherlink.com 1.10,2013-01-11 16:12:00,
2013-01-11 11:27:00,76.5,69.0,30.24,SSE,162,8.0,11.0,78,0.00,,,0.00,weatherlink.com 1.10,2013-01-11 16:27:00,
2013-01-11 11:42:00,76.9,69.0,30.23,SSE,150,8.0,12.0,76,0.00,,,0.00,weatherlink.com 1.10,2013-01-11 16:42:00,
2013-01-11 11:57:00,77.3,68.0,30.22,SSW,200,7.0,14.0,73,0.00,,,0.00,weatherlink.com 1.10,2013-01-11 16:57:00,
2013-01-11 12:12:00,77.7,68.0,30.21,South,173,9.0,10.0,73,0.00,,,0.00,weatherlink.com 1.10,2013-01-11 17:12:00,
2013-01-11 12:27:00,77.7,69.0,30.20,SE,139,6.0,13.0,75,0.00,,,0.00,weatherlink.com 1.10,2013-01-11 17:27:00,
2013-01-11 12:42:00,77.2,68.0,30.19,SSE,161,4.0,12.0,73,0.00,,,0.00,weatherlink.com 1.10,2013-01-11 17:42:00,
2013-01-11 12:57:00,78.5,68.0,30.19,SSE,153,8.0,13.0,70,0.00,,,0.00,weatherlink.com 1.10,2013-01-11 17:57:00,
2013-01-11 13:12:00,78.5,67.0,30.18,SSE,150,9.0,12.0,68,0.00,,,0.00,weatherlink.com 1.10,2013-01-11 18:12:00,
2013-01-11 13:27:00,79.3,67.0,30.17,SE,138,12.0,14.0,67,0.00,,,0.00,weatherlink.com 1.10,2013-01-11 18:27:00,
2013-01-11 13:42:00,79.6,68.0,30.16,SSE,147,13.0,13.0,68,0.00,,,0.00,weatherlink.com 1.10,2013-01-11 18:42:00,
2013-01-11 13:57:00,79.8,68.0,30.15,SE,128,11.0,12.0,67,0.00,,,0.00,weatherlink.com 1.10,2013-01-11 18:57:00,
2013-01-11 14:12:00,79.8,68.0,30.15,ESE,111,4.0,11.0,67,0.00,,,0.00,weatherlink.com 1.10,2013-01-11 19:12:00,
2013-01-11 14:27:00,80.2,69.0,30.15,ESE,123,7.0,11.0,69,0.00,,,0.00,weatherlink.com 1.10,2013-01-11 19:27:00,
2013-01-11 14:42:00,79.7,69.0,30.15,SE,134,6.0,8.0,69,0.00,,,0.00,weatherlink.com 1.10,2013-01-11 19:42:00,
2013-01-11 14:57:00,79.8,69.0,30.15,SE,135,6.0,11.0,70,0.00,,,0.00,weatherlink.com 1.10,2013-01-11 19:57:00,
2013-01-11 15:12:00,79.0,68.0,30.15,SE,138,5.0,8.0,70,0.00,,,0.00,weatherlink.com 1.10,2013-01-11 20:12:00,
2013-01-11 15:27:00,79.5,69.0,30.15,SE,131,8.0,13.0,71,0.00,,,0.00,weatherlink.com 1.10,2013-01-11 20:27:00,
2013-01-11 15:42:00,79.6,69.0,30.15,SE,138,9.0,15.0,71,0.00,,,0.00,weatherlink.com 1.10,2013-01-11 20:42:00,
2013-01-11 15:57:00,79.3,69.0,30.15,SE,127,9.0,13.0,71,0.00,,,0.00,weatherlink.com 1.10,2013-01-11 20:57:00,
2013-01-11 16:12:00,79.0,69.0,30.16,SSE,161,8.0,11.0,72,0.00,,,0.00,weatherlink.com 1.10,2013-01-11 21:12:00,
2013-01-11 16:27:00,77.8,69.0,30.16,SE,138,5.0,13.0,74,0.00,,,0.00,weatherlink.com 1.10,2013-01-11 21:27:00,
2013-01-11 16:42:00,77.0,69.0,30.16,SE,128,7.0,15.0,76,0.00,,,0.00,weatherlink.com 1.10,2013-01-11 21:42:00,
2013-01-11 16:57:00,76.8,69.0,30.16,ESE,117,8.0,11.0,76,0.00,,,0.00,weatherlink.com 1.10,2013-01-11 21:57:00,
2013-01-11 17:12:00,75.8,68.0,30.15,SE,128,6.0,10.0,76,0.00,,,0.00,weatherlink.com 1.10,2013-01-11 22:12:00,
2013-01-11 17:27:00,75.2,68.0,30.16,SE,141,8.0,14.0,79,0.00,,,0.00,weatherlink.com 1.10,2013-01-11 22:27:00,
2013-01-11 17:42:00,74.4,68.0,30.16,SE,130,7.0,13.0,81,0.00,,,0.00,weatherlink.com 1.10,2013-01-11 22:42:00,
2013-01-11 17:57:00,73.7,68.0,30.16,SE,142,9.0,11.0,83,0.00,,,0.00,weatherlink.com 1.10,2013-01-11 22:57:00,
2013-01-11 18:12:00,72.8,68.0,30.16,SE,132,3.0,7.0,86,0.00,,,0.00,weatherlink.com 1.10,2013-01-11 23:12:00,
2013-01-11 18:27:00,72.1,68.0,30.16,SE,125,3.0,7.0,87,0.00,,,0.00,weatherlink.com 1.10,2013-01-11 23:27:00,
2013-01-11 18:42:00,71.6,68.0,30.16,SE,135,4.0,6.0,88,0.00,,,0.00,weatherlink.com 1.10,2013-01-11 23:42:00,
2013-01-11 18:57:00,71.4,68.0,30.16,SE,140,3.0,4.0,89,0.00,,,0.00,weatherlink.com 1.10,2013-01-11 23:57:00,
2013-01-11 19:12:00,71.1,68.0,30.16,SSE,158,2.0,4.0,90,0.00,,,0.00,weatherlink.com 1.10,2013-01-12 00:12:00,
2013-01-11 19:27:00,70.8,68.0,30.17,SSE,157,0.0,3.0,90,0.00,,,0.00,weatherlink.com 1.10,2013-01-12 00:27:00,
2013-01-11 19:42:00,70.5,68.0,30.18,SE,131,2.0,4.0,91,0.00,,,0.00,weatherlink.com 1.10,2013-01-12 00:42:00,
2013-01-11 19:57:00,70.5,68.0,30.18,SE,126,3.0,4.0,91,0.00,,,0.00,weatherlink.com 1.10,2013-01-12 00:57:00,
2013-01-11 20:12:00,70.3,68.0,30.18,ESE,123,2.0,4.0,91,0.00,,,0.00,weatherlink.com 1.10,2013-01-12 01:12:00,
2013-01-11 20:27:00,70.1,67.0,30.18,ESE,123,2.0,3.0,91,0.00,,,0.00,weatherlink.com 1.10,2013-01-12 01:27:00,
2013-01-11 20:42:00,69.7,67.0,30.18,ESE,115,2.0,4.0,92,0.00,,,0.00,weatherlink.com 1.10,2013-01-12 01:42:00,
2013-01-11 20:57:00,69.3,67.0,30.18,ESE,116,2.0,4.0,93,0.00,,,0.00,weatherlink.com 1.10,2013-01-12 01:57:00,
2013-01-11 21:12:00,69.1,67.0,30.18,ESE,119,3.0,5.0,94,0.00,,,0.00,weatherlink.com 1.10,2013-01-12 02:12:00,
2013-01-11 21:27:00,69.3,68.0,30.18,SE,130,2.0,7.0,94,0.00,,,0.00,weatherlink.com 1.10,2013-01-12 02:27:00,
2013-01-11 21:42:00,69.4,67.0,30.18,SE,138,4.0,9.0,93,0.00,,,0.00,weatherlink.com 1.10,2013-01-12 02:42:00,
2013-01-11 21:57:00,69.5,68.0,30.18,SE,131,5.0,8.0,93,0.00,,,0.00,weatherlink.com 1.10,2013-01-12 02:57:00,
2013-01-11 22:12:00,69.4,67.0,30.19,SE,126,5.0,7.0,93,0.00,,,0.00,weatherlink.com 1.10,2013-01-12 03:12:00,
2013-01-11 22:27:00,69.2,67.0,30.19,SSE,149,4.0,6.0,93,0.00,,,0.00,weatherlink.com 1.10,2013-01-12 03:27:00,
2013-01-11 22:42:00,69.1,67.0,30.18,SE,146,4.0,7.0,93,0.00,,,0.00,weatherlink.com 1.10,2013-01-12 03:42:00,
2013-01-11 22:57:00,68.6,67.0,30.19,SSE,152,4.0,8.0,93,0.00,,,0.00,weatherlink.com 1.10,2013-01-12 03:57:00,
2013-01-11 23:12:00,68.2,67.0,30.19,SSE,153,3.0,6.0,94,0.00,,,0.00,weatherlink.com 1.10,2013-01-12 04:12:00,
2013-01-11 23:27:00,67.7,66.0,30.19,SE,133,1.0,7.0,94,0.00,,,0.00,weatherlink.com 1.10,2013-01-12 04:27:00,
2013-01-11 23:42:00,68.0,67.0,30.20,ESE,109,2.0,4.0,95,0.00,,,0.00,weatherlink.com 1.10,2013-01-12 04:42:00,
2013-01-11 23:57:00,68.3,67.0,30.20,ESE,118,4.0,5.0,94,0.00,,,0.00,weatherlink.com 1.10,2013-01-12 04:57:00,